| time (UTC) | temp F | wind direction | speed MPH | gust MPH | rain 1hr in | rain 24hr in | rain mn in | humidity % | barometer mb |
| 20260905160108 | 71 | 274 | 12.0 | 19.0 | 0.00 | 0.01 | 0.01 | 100 | 1019.9 |
| 20260905154908 | 72 | 244 | 8.0 | 19.0 | 0.00 | 0.01 | 0.01 | 100 | 1019.7 |
| 20260905153706 | 72 | 261 | 8.0 | 18.0 | 0.00 | 0.01 | 0.01 | 100 | 1019.6 |
| 20260905152506 | 73 | 248 | 10.0 | 17.0 | 0.00 | 0.01 | 0.01 | 100 | 1019.6 |
| 20260905151305 | 73 | 272 | 11.0 | 17.0 | 0.00 | 0.01 | 0.01 | 100 | 1019.7 |
| 20260905150104 | 72 | 232 | 14.0 | 27.0 | 0.00 | 0.01 | 0.01 | 100 | 1019.5 |
| 20260905144903 | 72 | 270 | 10.0 | 23.0 | 0.00 | 0.01 | 0.01 | 100 | 1019.5 |
| 20260905143703 | 72 | 251 | 15.0 | 23.0 | 0.00 | 0.01 | 0.01 | 100 | 1019.4 |
| 20260905142502 | 73 | 248 | 13.0 | 20.0 | 0.00 | 0.01 | 0.01 | 100 | 1019.4 |
| 20260905141301 | 73 | 237 | 13.0 | 22.0 | 0.00 | 0.01 | 0.01 | 100 | 1019.3 |
| 20260905134900 | 73 | 274 | 6.0 | 19.0 | 0.00 | 0.01 | 0.01 | 100 | 1019.3 |
| 20260905133659 | 72 | 240 | 13.0 | 21.0 | 0.00 | 0.01 | 0.01 | 100 | 1019.3 |
| 20260905132459 | 73 | 254 | 11.0 | 24.0 | 0.00 | 0.01 | 0.01 | 100 | 1019.2 |
| 20260905131258 | 73 | 241 | 15.0 | 20.0 | 0.00 | 0.01 | 0.01 | 100 | 1019.2 |
| 20260905130057 | 73 | 262 | 13.0 | 26.0 | 0.00 | 0.01 | 0.01 | 100 | 1019.1 |
| 20260905124857 | 73 | 257 | 10.0 | 23.0 | 0.00 | 0.01 | 0.01 | 100 | 1019.4 |
| 20260905123656 | 73 | 198 | 12.0 | 23.0 | 0.00 | 0.01 | 0.01 | 100 | 1019.3 |
| 20260905122455 | 74 | 251 | 10.0 | 21.0 | 0.00 | 0.01 | 0.01 | 100 | 1019.4 |
| 20260905121255 | 74 | 257 | 7.0 | 23.0 | 0.00 | 0.01 | 0.01 | 100 | 1019.4 |
| 20260905120054 | 74 | 267 | 3.0 | 19.0 | 0.00 | 0.01 | 0.01 | 100 | 1019.4 |
| 20260905114853 | 73 | 258 | 16.0 | 21.0 | 0.00 | 0.01 | 0.01 | 100 | 1019.3 |
| 20260905113653 | 72 | 251 | 14.0 | 23.0 | 0.00 | 0.01 | 0.01 | 100 | 1019.6 |
| 20260905112452 | 71 | 233 | 9.0 | 17.0 | 0.00 | 0.01 | 0.01 | 100 | 1019.5 |
| 20260905111251 | 73 | 243 | 14.0 | 21.0 | 0.00 | 0.01 | 0.01 | 100 | 1019.5 |
| 20260905110050 | 72 | 250 | 15.0 | 26.0 | 0.00 | 0.01 | 0.01 | 100 | 1019.4 |
| 20260905104850 | 72 | 216 | 13.0 | 22.0 | 0.00 | 0.01 | 0.01 | 100 | 1019.4 |
| 20260905103649 | 72 | 261 | 11.0 | 23.0 | 0.00 | 0.01 | 0.01 | 100 | 1019.6 |
| 20260905102448 | 72 | 209 | 8.0 | 23.0 | 0.00 | 0.01 | 0.01 | 100 | 1019.6 |
| 20260905101248 | 72 | 268 | 23.0 | 23.0 | 0.00 | 0.01 | 0.01 | 100 | 1019.5 |
| 20260905100047 | 71 | 230 | 9.0 | 20.0 | 0.00 | 0.01 | 0.01 | 100 | 1019.6 |
| 20260905094846 | 71 | 243 | 10.0 | 20.0 | 0.00 | 0.01 | 0.01 | 100 | 1019.5 |
| 20260905093646 | 70 | 248 | 11.0 | 22.0 | 0.00 | 0.01 | 0.01 | 100 | 1019.7 |
| 20260905092445 | 70 | 244 | 17.0 | 21.0 | 0.00 | 0.01 | 0.01 | 100 | 1019.6 |
| 20260905091244 | 70 | 243 | 14.0 | 16.0 | 0.00 | 0.01 | 0.01 | 100 | 1019.5 |
| 20260905090044 | 69 | 233 | 9.0 | 19.0 | 0.00 | 0.01 | 0.01 | 100 | 1019.7 |
| 20260905084843 | 68 | 285 | 8.0 | 19.0 | 0.00 | 0.01 | 0.01 | 100 | 1019.9 |
| 20260905083642 | 66 | 275 | 9.0 | 16.0 | 0.00 | 0.01 | 0.01 | 100 | 1019.9 |
| 20260905082442 | 65 | 217 | 5.0 | 15.0 | 0.00 | 0.01 | 0.01 | 100 | 1019.9 |
| 20260905081241 | 64 | 265 | 6.0 | 13.0 | 0.00 | 0.01 | 0.01 | 100 | 1019.5 |
| 20260905080040 | 64 | 189 | 8.0 | 15.0 | 0.00 | 0.01 | 0.01 | 100 | 1019.2 |
| 20260905074840 | 63 | 233 | 10.0 | 16.0 | 0.00 | 0.01 | 0.01 | 100 | 1019.4 |
| 20260905073639 | 63 | 174 | 7.0 | 17.0 | 0.01 | 0.01 | 0.01 | 100 | 1019.4 |
| 20260905072438 | 62 | 251 | 9.0 | 11.0 | 0.01 | 0.01 | 0.01 | 100 | 1019.4 |
| 20260905071238 | 62 | 222 | 8.0 | 10.0 | 0.01 | 0.01 | 0.01 | 100 | 1019.3 |
| 20260905070037 | 62 | 180 | 5.0 | 9.0 | 0.01 | 0.01 | 0.01 | 100 | 1019.2 |
| 20260905064836 | 62 | 185 | 6.0 | 7.0 | 0.01 | 0.01 | 0.01 | 100 | 1019.1 |
| 20260905063635 | 62 | 205 | 7.0 | 7.0 | 0.00 | 0.00 | 0.00 | 100 | 1019.0 |
| 20260905062435 | 62 | 225 | 4.0 | 8.0 | 0.00 | 0.00 | 0.00 | 100 | 1019.0 |
| 20260905061234 | 62 | 195 | 6.0 | 7.0 | 0.00 | 0.00 | 0.00 | 100 | 1018.6 |
| 20260905060033 | 62 | 201 | 4.0 | 9.0 | 0.00 | 0.00 | 0.00 | 100 | 1018.3 |
| 20260905054833 | 63 | 227 | 4.0 | 6.0 | 0.00 | 0.00 | 0.00 | 100 | 1018.2 |
| 20260905053632 | 63 | 232 | 4.0 | 8.0 | 0.00 | 0.00 | 0.00 | 100 | 1017.9 |
| 20260905052431 | 63 | 291 | 5.0 | 15.0 | 0.00 | 0.00 | 0.00 | 100 | 1018.3 |
| 20260905051231 | 64 | 284 | 4.0 | 16.0 | 0.00 | 0.00 | 0.00 | 100 | 1018.1 |
| 20260905050030 | 66 | 285 | 7.0 | 14.0 | 0.00 | 0.00 | 0.00 | 100 | 1017.8 |
| 20260905044829 | 66 | 298 | 5.0 | 10.0 | 0.00 | 0.00 | 0.00 | 100 | 1017.7 |
| 20260905043629 | 66 | 244 | 2.0 | 8.0 | 0.00 | 0.00 | 0.00 | 100 | 1017.5 |
| 20260905042428 | 66 | 191 | 2.0 | 9.0 | 0.00 | 0.00 | 0.00 | 100 | 1017.2 |
| 20260905041227 | 66 | 250 | 3.0 | 7.0 | 0.00 | 0.00 | 0.00 | 100 | 1016.9 |
| 20260905040027 | 66 | 206 | 5.0 | 6.0 | 0.00 | 0.00 | 0.00 | 100 | 1016.8 |
| 20260905034826 | 65 | 209 | 2.0 | 7.0 | 0.00 | 0.00 | 0.00 | 100 | 1016.7 |
| 20260905033625 | 65 | 268 | 4.0 | 10.0 | 0.00 | 0.00 | 0.00 | 100 | 1016.8 |
| 20260905032425 | 65 | 206 | 4.0 | 11.0 | 0.00 | 0.00 | 0.00 | 100 | 1016.4 |
| 20260905031224 | 66 | 206 | 7.0 | 10.0 | 0.00 | 0.00 | 0.00 | 100 | 1016.3 |
| 20260905030023 | 66 | 192 | 5.0 | 7.0 | 0.00 | 0.00 | 0.00 | 100 | 1015.8 |
| 20260905025626 | 66 | 189 | 4.0 | 10.0 | 0.00 | 0.00 | 0.00 | 100 | 1015.8 |
| 20260905024822 | 67 | 175 | 5.0 | 5.0 | 0.00 | 0.00 | 0.00 | 100 | 1015.9 |
| 20260905023622 | 67 | 22 | 1.0 | 2.0 | 0.00 | 0.00 | 0.00 | 100 | 1016.0 |
| 20260905022421 | 67 | 150 | 0.0 | 2.0 | 0.00 | 0.00 | 0.00 | 100 | 1016.1 |
| 20260905021220 | 67 | 206 | 1.0 | 4.0 | 0.00 | 0.00 | 0.00 | 100 | 1016.2 |
| 20260905020020 | 67 | 165 | 0.0 | 3.0 | 0.00 | 0.00 | 0.00 | 100 | 1015.9 |
| 20260905014819 | 67 | 182 | 0.0 | 2.0 | 0.00 | 0.00 | 0.00 | 100 | 1016.2 |
| 20260905013618 | 67 | 146 | 1.0 | 3.0 | 0.00 | 0.00 | 0.00 | 100 | 1016.0 |
| 20260905012418 | 67 | 285 | 1.0 | 2.0 | 0.00 | 0.00 | 0.00 | 100 | 1016.3 |
| 20260905011217 | 67 | 288 | 1.0 | 2.0 | 0.00 | 0.00 | 0.00 | 100 | 1015.9 |
| 20260905010016 | 68 | 180 | 1.0 | 2.0 | 0.00 | 0.00 | 0.00 | 100 | 1015.7 |
| 20260905004816 | 68 | 122 | 0.0 | 1.0 | 0.00 | 0.00 | 0.00 | 100 | 1015.5 |
| 20260905003615 | 68 | 46 | 0.0 | 0.0 | 0.00 | 0.00 | 0.00 | 100 | 1015.5 |
| 20260905002414 | 68 | 53 | 0.0 | 2.0 | 0.00 | 0.00 | 0.00 | 100 | 1015.4 |
| 20260905001214 | 68 | 57 | 2.0 | 4.0 | 0.00 | 0.00 | 0.00 | 100 | 1015.2 |
| 20260905000013 | 67 | 78 | 2.0 | 4.0 | 0.00 | 0.00 | 0.00 | 100 | 1015.1 |
| 20260904234812 | 67 | 354 | 3.0 | 4.0 | 0.00 | 0.00 | 0.00 | 100 | 1015.0 |
| 20260904233612 | 67 | 354 | 3.0 | 8.0 | 0.00 | 0.00 | 0.00 | 100 | 1015.0 |
| 20260904232411 | 67 | 357 | 4.0 | 8.0 | 0.00 | 0.00 | 0.00 | 100 | 1014.8 |
| 20260904231210 | 68 | 354 | 4.0 | 5.0 | 0.00 | 0.00 | 0.00 | 100 | 1014.7 |
| 20260904230009 | 68 | 345 | 5.0 | 11.0 | 0.00 | 0.00 | 0.00 | 100 | 1014.7 |
| 20260904224809 | 68 | 322 | 7.0 | 9.0 | 0.00 | 0.00 | 0.00 | 100 | 1014.6 |
| 20260904223608 | 69 | 344 | 4.0 | 11.0 | 0.00 | 0.00 | 0.00 | 100 | 1014.5 |
| 20260904222407 | 69 | 334 | 7.0 | 16.0 | 0.00 | 0.00 | 0.00 | 100 | 1014.2 |
| 20260904221207 | 70 | 326 | 12.0 | 20.0 | 0.00 | 0.00 | 0.00 | 100 | 1013.9 |
| 20260904220006 | 71 | 319 | 8.0 | 22.0 | 0.00 | 0.00 | 0.00 | 100 | 1013.6 |
| 20260904214805 | 73 | 320 | 11.0 | 22.0 | 0.00 | 0.00 | 0.00 | 100 | 1013.2 |
| 20260904213605 | 76 | 310 | 6.0 | 10.0 | 0.00 | 0.00 | 0.00 | 100 | 1012.7 |
| 20260904212404 | 76 | 230 | 6.0 | 14.0 | 0.00 | 0.00 | 0.00 | 100 | 1012.1 |
| 20260904211203 | 76 | 194 | 13.0 | 15.0 | 0.00 | 0.00 | 0.00 | 100 | 1012.0 |
| 20260904210003 | 76 | 154 | 1.0 | 10.0 | 0.00 | 0.00 | 0.00 | 100 | 1012.0 |
| 20260904204802 | 76 | 196 | 5.0 | 13.0 | 0.00 | 0.00 | 0.00 | 100 | 1012.0 |
| 20260904203601 | 76 | 151 | 8.0 | 14.0 | 0.00 | 0.00 | 0.00 | 100 | 1011.8 |
| 20260904202400 | 76 | 201 | 9.0 | 11.0 | 0.00 | 0.00 | 0.00 | 100 | 1011.8 |
| 20260904201200 | 76 | 206 | 7.0 | 18.0 | 0.00 | 0.00 | 0.00 | 100 | 1011.8 |
| 20260904195959 | 77 | 202 | 11.0 | 16.0 | 0.00 | 0.00 | 0.00 | 100 | 1011.7 |
| 20260904194758 | 76 | 189 | 5.0 | 9.0 | 0.00 | 0.00 | 0.00 | 100 | 1012.0 |
| 20260904193558 | 77 | 264 | 2.0 | 4.0 | 0.00 | 0.00 | 0.00 | 100 | 1012.3 |
| 20260904192357 | 77 | 223 | 3.0 | 7.0 | 0.00 | 0.00 | 0.00 | 100 | 1012.5 |
| 20260904191156 | 77 | 244 | 2.0 | 10.0 | 0.00 | 0.00 | 0.00 | 100 | 1012.7 |
| 20260904185956 | 77 | 226 | 6.0 | 7.0 | 0.00 | 0.00 | 0.00 | 100 | 1012.8 |
| 20260904184755 | 78 | 203 | 5.0 | 6.0 | 0.00 | 0.00 | 0.00 | 100 | 1012.9 |
| 20260904183554 | 79 | 241 | 5.0 | 7.0 | 0.00 | 0.00 | 0.00 | 100 | 1012.9 |
| 20260904182354 | 79 | 198 | 1.0 | 6.0 | 0.00 | 0.00 | 0.00 | 100 | 1012.9 |
| 20260904181153 | 79 | 198 | 1.0 | 7.0 | 0.00 | 0.00 | 0.00 | 100 | 1012.7 |
| 20260904175952 | 78 | 217 | 3.0 | 5.0 | 0.00 | 0.00 | 0.00 | 100 | 1012.5 |
| 20260904174752 | 78 | 210 | 5.0 | 7.0 | 0.00 | 0.00 | 0.00 | 100 | 1012.2 |
| 20260904173551 | 79 | 195 | 2.0 | 5.0 | 0.00 | 0.00 | 0.00 | 100 | 1012.0 |
| 20260904172350 | 79 | 220 | 2.0 | 6.0 | 0.00 | 0.00 | 0.00 | 100 | 1012.1 |
| 20260904171150 | 79 | 192 | 4.0 | 10.0 | 0.00 | 0.00 | 0.00 | 100 | 1012.1 |
| 20260904165949 | 80 | 194 | 5.0 | 13.0 | 0.00 | 0.00 | 0.00 | 100 | 1012.0 |
| 20260904164748 | 80 | 246 | 8.0 | 12.0 | 0.00 | 0.00 | 0.00 | 100 | 1012.2 |
| 20260904163548 | 80 | 161 | 4.0 | 17.0 | 0.00 | 0.00 | 0.00 | 100 | 1012.1 |
| 20260904162347 | 81 | 208 | 4.0 | 16.0 | 0.00 | 0.00 | 0.00 | 100 | 1012.3 |
| 20260904161146 | 81 | 225 | 5.0 | 14.0 | 0.00 | 0.00 | 0.00 | 100 | 1012.3 |